Weather in Namangan

Uzbekistan     41˚00′00″N   71˚40′21″E
temp.,
°C
wind,
m/s
gust,
m/s
humid.,
%
clouds,
%
prec.,
mm/h
press.,
hPa
HPBL,
m
16 january, sat
sat1623:00+4˚ene11600 0.0 101922
02:00+4˚ene11620 0.0 101922
05:00+3˚ene11600 0.0 101922
08:00+3˚ene11530 0.0 102022
11:00+8˚e11380 0.0 1019187
14:00+12˚e12290 0.0 1019380
17:00+9˚wsw01380 0.0 102022
20:00+7˚ese11430 0.0 102222
17 january, sun
sun1723:00+5˚ene124914 0.0 102224
02:00+3˚ene11480 0.0 102123
05:00+3˚ene22470 0.0 102026
08:00+3˚ne23410 0.0 102027
11:00+8˚se12270 0.0 1017217
14:00+10˚s112549 0.0 1013393
17:00+7˚ne003475 0.0 101322
20:00+6˚ne1238100 0.0 101322
18 january, mon
mon1823:00+4˚ene1142100 0.0 101122
02:00+3˚ne1241100 0.0 101122
05:00+2˚e1242100 0.0 101122
08:00+2˚nne114098 0.0 101322
11:00+7˚ese112999 0.0 1013160
14:00+9˚sse1125100 0.0 1012281
17:00+7˚w113583 0.0 101322
20:00+5˚wsw2238100 0.0 101522
19 january, tue
tue1923:00+5˚ne2341100 0.0 101623
02:00+4˚nne2246100 0.0 101723
05:00+5˚nne3339100 0.0 101735
08:00+6˚nne1236100 0.0 101922
11:00+8˚wsw2233100 0.0 1019117
14:00+11˚s1129100 0.0 1018229
17:00+8˚s1239100 0.0 102022
20:00+7˚n114299 0.0 102222
20 january, wed
wed2023:00+7˚nne124599 0.0 102429
02:00+6˚ne2373100 0.1 102458
05:00+5˚ne337950 0.1 102537
08:00+5˚n22726 0.0 102525
11:00+11˚ne124716 0.0 1022329
14:00+13˚ssw2240100 0.0 1018443
17:00+9˚w2360100 0.0 101868
20:00+7˚nne126362 0.0 101923